Regional Weather Roundup
Issued by NWS Grand Forks, ND

Home | Current Version | Previous Version | Text Only | Print | Product List | Glossary Off
Versions: 1 2 3 4 5 6 7 8 9 10 11 12 13 14 15 16 17 18 19 20 21 22 23 24 25 26 27 28 29 30 31 32 33 34 35 36 37 38 39 40 41 42 43 44 45 46 47 48 49 50

629
ASUS43 KFGF 131110
RWRFGF
PRAIRIE TO PINES  WEATHER ROUNDUP
NATIONAL WEATHER SERVICE EASTERN NORTH DAKOTA/GRAND FORKS ND
500 AM CST WED DEC 13 2017

 **SATELLITE DATA USED TO AUGMENT SKY COVER AT AUTOMATED STATIONS**
 *****  WEATHER ACROSS EASTERN NORTH DAKOTA  *****

CITY           SKY/WX    TMP DP  RH WIND       PRES   REMARKS
GRAND FORKS    LGT SNOW  28  25  88 N22G30    29.59R FOG     WCI  14
GRAND FRKS AFB CLOUDY    30  27  86 N25G35    29.61R WCI  16
GRAND FRKS NWS   N/A     27 N/A N/A VRB15       N/A  WCI  15
DEVILS LAKE    CLOUDY    34  30  85 NW21      29.66R WCI  22
FARGO          CLOUDY    32  28  85 N38G56    29.58R WCI  16
WAHPETON ARPT  CLOUDY    34  32  93 NW23G33   29.52R WCI  22
$$

 ***** WEATHER ACROSS CENTRAL AND WESTERN NORTH DAKOTA  *****

CITY           SKY/WX    TMP DP  RH WIND       PRES   REMARKS
BISMARCK       FAIR      39  30  70 NW25G40   29.78R
MINOT          FAIR      36  29  75 W26G36    29.77R
JAMESTOWN      CLOUDY    36  32  85 NW25G36   29.64R
MINOT AFB      FAIR      34  28  80 NW24G32   29.75R WCI  21
GARRISON         N/A     34  28  79 NW26G36   29.79R WCI  21
WILLISTON      FAIR      35  28  75 NW22G29   29.93R WCI  23
DICKINSON      FAIR      34  26  72 NW26G35   29.87R WCI  21
HETTINGER      FAIR      35  24  64 NW29G39   29.90R WCI  22
$$

 *****  OTHER AIRPORT OBSERVATIONS IN OUR AREA  *****

CITY           SKY/WX    TMP DP  RH WIND       PRES   REMARKS
WALHALLA       FAIR      27  27 100 NW15G24   29.66R WCI  15
GRAFTON AIRPOR CLOUDY    28  27  93 N31G44    29.63R WCI  12
VALLEY CITY AR FLURRIES  34  36 100 N18       29.62R WCI  23
CANDO          CLOUDY    34  34 100 NW26G33   29.69R WCI  21
CAVALIER APRT  MIX PCPN  27  27 100 N22G28    29.63R WCI  12
GWINNER          N/A     37  36  93 NW23G32   29.58R
SHEYENNE NWR     N/A     37  35  91 N18       29.95S
ROLLA          CLOUDY    32  30  93 NW24G32   29.67R WCI  19
 ***** THE ABOVE OBSERVATIONS ARE NON NWS ARE NOT QUALITY
       CONTROLLED AND MAY MIS-REPORT RAIN FOR SNOW...
$$

  *****  WEATHER ACROSS NORTHERN MINNESOTA  *****

CITY           SKY/WX    TMP DP  RH WIND       PRES   REMARKS
FLAG ISLAND    LGT SNOW  14  12  92 N13       29.56R WCI   0
WARROAD        CLOUDY    16  12  86 MISG      29.54R FOG
ROSEAU         CLOUDY    18  12  79 N9        29.55R FOG     WCI   6
HALLOCK        CLOUDY    25  21  86 N17G25    29.60R FOG     WCI  11
THF RVR FALLS  CLOUDY    20  19  96 N18       29.53R WCI   5
BAUDETTE       CLOUDY    15  13  91 N6        29.50R WCI   6
WASKISH        CLOUDY    16  14  93 N3        29.48R
CROOKSTON      CLOUDY    25  25 100 N25       29.56R FOG     WCI   9
STEPHEN NDAWN    N/A     23  21  93 N17         N/A  WCI   9
GREENBUSH NDAW   N/A     19  18  93 NW13        N/A  WCI   7
$$
  *****  WEATHER ACROSS CENTRAL AND WEST MINNESOTA  *****

CITY           SKY/WX    TMP DP  RH WIND       PRES   REMARKS
FOSSTON        CLOUDY    21  19  93 NW21G26   29.51R WCI   6
BEMIDJI        CLOUDY    20  18  92 N5        29.44R WCI  13
PARK RAPIDS    CLOUDY    24  21  88 NW5       29.39R WCI  18
ELBOW LAKE     LGT SNOW  32  32 100 W21G29    29.46R WCI  20
WADENA         FLURRIES  25  25 100 W3        29.40R
DETROIT LAKES  CLOUDY    32  30  93 NW28G33   29.46R WCI  18
MOORHEAD       MOCLDY    30  27  86 N39G45    29.55R WCI  13
FERGUS FALLS   CLOUDY    34  34 100 NW28G38   29.50R WCI  20
MORRIS MN      LGT SNOW  34  32  93 NW28G36   29.45R WCI  20
STAPLES        LGT SNOW  21  19  93 N3        29.39R
$$
  *****  WEATHER ELSEWHERE ACROSS MINNESOTA  *****

CITY           SKY/WX    TMP DP  RH WIND       PRES   REMARKS
DULUTH         LGT SNOW  16  15  96 E14       29.40F VSB 1   WCI   2
INTRNTL FALLS  LGT SNOW  16  12  84 NE5       29.49S FOG     WCI   9
ELY            LGT SNOW  18  12  79 E10       29.44F WCI   6
CLOQUET        LGT SNOW  16  12  86 E6        29.39F VSB 3/4 WCI   7
WHEATON        LGT SNOW  34  32  93 NW20G28   29.53R WCI  22
BRAINERD       LGT SNOW  22  18  85 N5        29.39F FOG     WCI  16
HIBBING        CLOUDY    16  13  88 E6        29.41F WCI   7
ALEXANDRIA     LGT SNOW  34  31  88 NW18G29   29.41R FOG     WCI  23
SAINT CLOUD    FAIR      24  22  91 N3        29.36R
MINNEAPOLIS    CLOUDY    28  25  88 SE6       29.34F WCI  22
$$

  *****  WEATHER ACROSS SOUTH DAKOTA  *****

CITY           SKY/WX    TMP DP  RH WIND       PRES   REMARKS
SIOUX FALLS    MOCLDY    45  32  60 NW30G46   29.53R
BROOKINGS      CLOUDY    39  34  82 NW32G38   29.50R
WATERTOWN      MIX PCPN  36  35  96 NW30G39   29.53R
HURON          LGT RAIN  45  31  58 NW32G40   29.62R
SISSETON         N/A     36  34  92 NW29G37   29.53R
ABERDEEN       MOCLDY    40  35  83 NW26G38   29.64R
MITCHELL       MOCLDY    47  29  49 NW22G39   29.64S
PIERRE         FAIR      45  28  51 NW28G38   29.77R
MOBRIDGE       FAIR      42  29  59 NW25G35   29.74R
RAPID CITY     FAIR      45  18  34 NW39G55   29.92F
$$

  *****  SOME WEATHER IN NEARBY STATES *****

CITY           SKY/WX    TMP DP  RH WIND       PRES   REMARKS
GLASGOW MT     FAIR      32  23  69 W13       30.09R WCI  22
GREAT FALLS MT FAIR      33  12  41 W5        30.24F
CHEYENNE WY    MOCLDY    39   6  25 N15       30.12R
SCOTTSBLUFF NE FAIR      41  13  31 W9        30.05S
OMAHA NE       FAIR      44  22  41 NW14G21   29.62F
DES MOINES IA  CLOUDY    36  24  62 SW15G22   29.52F
DAVENPORT IA   FAIR      30  19  63 S20G26    29.60F WCI  17
CHICAGO IL     CLOUDY    24  12  60 S12       29.71F WCI  13
EAU CLAIRE WI  CLOUDY    21  14  74 SE10      29.41F WCI  10
LA CROSSE WI   MOCLDY    29  20  69 S14       29.42F WCI  18
$$

  *****  SOME NATIONAL WEATHER *****

CITY           SKY/WX    TMP DP  RH WIND       PRES   REMARKS
LA GUARDIA NY  FAIR      22   6  50 W22G36    29.51R WCI   6
RALEIGH NC     FAIR      25  11  55 CALM      29.93R
ATLANTA GA     FAIR      29  11  47 NW12      30.03S WCI  19
NEW ORLEANS LA FAIR      34  34 100 SW3       30.16R
OKLAHOMA CITY  FAIR      33  24  69 SW8       29.93F
ALBUQUERQUE NM FAIR      33   5  30 NE3       30.22F
SALT LAKE CITY FOG       23  22  96 N6        30.40R VSB 1/2 WCI  16
LOS ANGELES CA FAIR      53  26  35 E5        30.02S
BOISE ID       CLOUDY    22  20  92 CALM      30.47F
SEATTLE WA     FAIR      36  33  89 NW7       30.41R
$$

*** WEATHER ACROSS MANITOBA...SASKATCHEWAN AND ONTARIO ***
                ***ONTARIO***

CITY           SKY/WX    TMP DP  RH WIND       PRES   REMARKS
GERALDTON      PTCLDY   -20 -26  76 E2        29.77S
THUNDER BAY    FLURRIES  18  14  86 E17       29.65F WCI   2
SIOUX LOOKOUT  FLURRIES   5   0  78 E6        29.61R WCI  -6
TORONTO        PTCLDY    10   1  67 NW15      29.68R WCI  -6
BIG TROUT LK   CLEAR    -27 -33  75 E2        29.85R
PICKLE LAKE    CLEAR    -20 -26  76 E6        29.71  WCI -36
DRYDEN         FLURRIES   9   5  85 NE8       29.56R WCI  -4
KENORA         LGT SNOW  10   7  85 NE7       29.56R WCI   0
$$
                *** MANITOBA***

CITY           SKY/WX    TMP DP  RH WIND       PRES   REMARKS
BRANDON        CLOUDY    32  28  86 N14       29.71R WCI  22
DAUPHIN        CLOUDY    30  28  93 N8        29.75R WCI  23
ISLAND LAKE    FLURRIES   0  -4  85 NE2       29.79R
PILOT MOUND      N/A     28  27  93 N21G28      N/A  WCI  15
THE PAS        CLOUDY    18  14  86 N12       29.84R WCI   5
THOMPSON       LGT SNOW   3  -2  78 NE6       29.86R WCI  -8
WINNIPEG       CLOUDY    21  19  93 N18       29.65R FOG     WCI   6
LYNN LAKE      CLEAR      1  -2  85 NW5       29.85R WCI  -8
CHURCHILL      FOG      -20 -26  76 W8        29.98R VSB 1   WCI -39
GILLAM         PTCLDY   -18 -24  76 NE3       29.92R
$$
                ***SASKATCHEWAN***

CITY           SKY/WX    TMP DP  RH WIND       PRES   REMARKS
ESTEVAN        PTCLDY    32  28  86 NW20G31   29.86R WCI  20
KINDERSLEY     MOCLDY    28  25  86 NW8       30.10R WCI  20
LLOYDMINSTER   MOCLDY    30  25  80 W12       30.06F WCI  21
PRINCE ALBERT  CLOUDY    32  27  80 NW13      29.95S WCI  22
REGINA         CLEAR     30  27  86 NW14      29.93R WCI  20
YORKTON        CLOUDY    34  28  80 NW18      29.80R WCI  23
N. BATTLEFORD  CLEAR     30  25  80 NW12      30.06F WCI  21
LA RONGE       FLURRIES  32  27  80 NW10G17   29.90R WCI  24
SASKATOON      MOCLDY    30  27  86 W16       30.02R WCI  19
SWIFT CURRENT  MOCLDY    28  25  86 W15G21    30.05S WCI  17
$$
NOTE: THESE ARE AUTOMATED STATIONS WITH LIMITED QUALITY CONTROL
      "FAIR" INDICATES FEW OR NO CLOUDS BELOW 12,000 FEET WITH NO
      SIGNIFICANT WEATHER AND/OR OBSTRUCTIONS TO VISIBILITY.
      SKY/WX - SKY CONDITION AND SIGNIFICANT WEATHER.
      TMP - AIR TEMPERATURE.    DP   - DEWPOINT TEMPERATURE.
      RH  - RELATIVE HUMIDITY.  PRES - PRESSURE.
      HX  - HEAT INDEX.         WCI  - WIND CHILL INDEX.
$




USA.gov is the U.S. government's official web portal to all federal, state and local government web resources and services.